"2016-01-02 00:00:00",1248411,3.375,293.4,8.92,1.252,5.237,99.60413,-1.709,-0.402,12.38,0,109.6,13.38,-0.96,255.4
"2016-01-02 00:00:30",1248412,2.824,289.2,7.228,1.415,4.394,99.59309,-1.737,-0.493,12.31,0,109.6,13.39,-0.99,251.2
"2016-01-02 00:01:00",1248413,2.541,283.1,6.885,1.142,3.641,99.59253,-1.738,-0.47,12.35,0,109.6,13.38,-0.99,245.1
"2016-01-02 00:01:30",1248414,2.711,284.7,7.433,1.355,4.181,99.5928,-1.737,-0.5,12.37,0,109.6,13.38,-0.99,246.7
"2016-01-02 00:02:00",1248415,1.549,280.7,4.193,0.103,1.787,99.59421,-1.734,-0.652,12.24,0,109.6,13.43,-0.99,242.7
"2016-01-02 00:02:30",1248416,2.425,286.8,7.654,1.159,3.637,99.58739,-1.751,-0.526,12.4,0,109.6,13.38,-1.01,248.8
"2016-01-02 00:03:00",1248417,3.33,289.2,7.441,1.325,5.402,99.57832,-1.774,-0.438,12.49,0,109.6,13.38,-1.03,251.2
"2016-01-02 00:03:30",1248418,2.924,287,6.65,1.347,4.802,99.5797,-1.771,-0.492,12.46,0,109.6,13.39,-1.03,249.0
"2016-01-02 00:04:00",1248419,2.855,291.1,7.663,1.355,4.305,99.58253,-1.764,-0.503,12.49,0,109.6,13.38,-1.02,253.1
"2016-01-02 00:04:30",1248420,2.48,290.5,7.455,1.3,3.399,99.58534,-1.757,-0.609,12.4,0,109.6,13.39,-1.01,252.5
"2016-01-02 00:05:00",1248421,1.516,281.2,3.135,0.061,1.595,99.58477,-1.758,-0.721,12.32,0,109.6,13.43,-1.01,243.2
"2016-01-02 00:05:30",1248422,2.028,282.9,4.56,0.858,2.402,99.57967,-1.771,-0.632,12.43,0,109.6,13.39,-1.03,244.9
"2016-01-02 00:06:00",1248423,3.594,286.1,7.28,1.288,5.669,99.57314,-1.788,-0.537,12.52,0,109.6,13.39,-1.04,248.1
"2016-01-02 00:06:30",1248424,2.852,286.5,6.104,1.335,4.473,99.57201,-1.791,-0.575,12.53,0,109.6,13.4,-1.04,248.5
"2016-01-02 00:07:00",1248425,3.205,289.2,7.189,1.324,4.978,99.56804,-1.801,-0.649,12.45,0,109.6,13.4,-1.05,251.2
"2016-01-02 00:07:30",1248426,3.294,292.3,8.28,1.359,4.503,99.55871,-1.824,-0.584,12.49,0,109.5,13.4,-1.08,254.3
"2016-01-02 00:08:00",1248427,1.885,288.3,2.303,0.112,1.717,99.55843,-1.825,-0.74,12.34,0,109.5,13.41,-1.08,250.3
"2016-01-02 00:08:30",1248428,2.333,292.1,5.244,1.116,2.72,99.55843,-1.825,-0.764,12.32,0,109.5,13.39,-1.08,254.1
"2016-01-02 00:09:00",1248429,3.162,296.8,7.101,1.343,5.067,99.55729,-1.828,-0.538,12.59,0,109.5,13.4,-1.08,258.8
"2016-01-02 00:09:30",1248430,2.946,292.8,8.09,1.364,4.907,99.55106,-1.844,-0.581,12.53,0,109.5,13.4,-1.10,254.8
"2016-01-02 00:10:00",1248431,2.895,290.9,6.518,1.332,4.367,99.54257,-1.866,-0.619,12.52,0,109.5,13.4,-1.12,252.9
"2016-01-02 00:10:30",1248432,3.127,285.9,8.21,1.338,4.217,99.54031,-1.871,-0.694,12.49,0,109.5,13.41,-1.13,247.9
"2016-01-02 00:11:00",1248433,2.491,287.5,7.983,1.21,3.033,99.53097,-1.895,-0.702,12.51,0,109.5,13.41,-1.15,249.5
"2016-01-02 00:11:30",1248434,1.855,285.4,2.559,0.08,1.914,99.52925,-1.899,-0.753,12.49,0,109.5,13.41,-1.15,247.4
"2016-01-02 00:12:00",1248435,3.528,287.9,7.589,1.278,5.133,99.53178,-1.893,-0.639,12.62,0,109.5,13.41,-1.15,249.9
"2016-01-02 00:12:30",1248436,3.636,295.8,7.011,1.323,5.41,99.53459,-1.886,-0.627,12.66,0,109.5,13.41,-1.14,257.8
"2016-01-02 00:13:00",1248437,3.173,300.6,9.44,1.308,4.94,99.5391,-1.874,-0.577,12.75,0,109.5,13.41,-1.13,262.6
"2016-01-02 00:13:30",1248438,2.954,292.9,9.05,1.298,3.643,99.54107,-1.869,-0.744,12.62,0,109.6,13.41,-1.12,254.9
"2016-01-02 00:14:00",1248439,2.442,290.1,5.338,1.172,2.896,99.54417,-1.861,-0.743,12.64,0,109.5,13.41,-1.12,252.1
"2016-01-02 00:14:30",1248440,2.517,301.1,9.05,1.336,2.995,99.54756,-1.853,-0.772,12.62,0,109.5,13.41,-1.11,263.1
"2016-01-02 00:15:00",1248441,3.486,319.5,9.34,1.321,4.816,99.54839,-1.851,-0.616,12.83,0,109.5,13.41,-1.11,281.5
"2016-01-02 00:15:30",1248442,3.334,314.2,7.557,1.395,5.426,99.54698,-1.854,-0.585,12.91,0,109.5,13.41,-1.11,276.2
"2016-01-02 00:16:00",1248443,2.865,315,9.25,1.352,4.338,99.54131,-1.869,-0.65,12.88,0,109.4,13.42,-1.12,277.0
"2016-01-02 00:16:30",1248444,3.1,316.5,6.008,1.349,3.968,99.53791,-1.877,-0.758,12.81,0,109.5,13.41,-1.13,278.5
"2016-01-02 00:17:00",1248445,2.688,317.2,5.247,1.271,3.183,99.5362,-1.882,-0.754,12.84,0,109.5,13.42,-1.14,279.2
"2016-01-02 00:17:30",1248446,2.836,310.3,8.64,1.243,3.438,99.5342,-1.887,-0.764,12.85,0,109.5,13.41,-1.14,272.3
"2016-01-02 00:18:00",1248447,3.224,327.1,9.52,1.324,4.708,99.53873,-1.875,-0.701,12.98,0,109.5,13.41,-1.13,289.1
"2016-01-02 00:18:30",1248448,3.186,326.5,9.51,1.481,4.678,99.5359,-1.883,-0.683,13,0,109.5,13.41,-1.14,288.5
"2016-01-02 00:19:00",1248449,2.424,327.9,5.257,1.101,3.356,99.52769,-1.903,-0.789,12.93,0,109.5,13.41,-1.16,289.9
"2016-01-02 00:19:30",1248450,3.066,329.9,8.02,1.378,4.717,99.52457,-1.911,-0.673,13.08,0,109.5,13.41,-1.17,291.9
"2016-01-02 00:20:00",1248451,2.788,328.2,6.439,1.256,3.6,99.52429,-1.912,-0.757,13.04,0,109.5,13.41,-1.17,290.2
"2016-01-02 00:20:30",1248452,2.374,322.7,7.389,1.278,3.507,99.52429,-1.912,-0.745,13.14,0,109.5,13.41,-1.17,284.7
"2016-01-02 00:21:00",1248453,3.469,324.8,8.78,1.3,5.61,99.52429,-1.912,-0.669,13.23,0,109.5,13.41,-1.17,286.8
"2016-01-02 00:21:30",1248454,2.616,317.5,8.53,1.164,3.571,99.52429,-1.912,-0.728,13.18,0,109.5,13.41,-1.17,279.5
"2016-01-02 00:22:00",1248455,2.593,313.7,9.94,1.378,3.904,99.52457,-1.911,-0.786,13.13,0,109.5,13.41,-1.17,275.7
"2016-01-02 00:22:30",1248456,2.882,329.6,8.73,1.42,4.206,99.52486,-1.911,-0.773,13.18,0,109.5,13.41,-1.17,291.6
"2016-01-02 00:23:00",1248457,2.546,324.6,8.34,1.263,4.084,99.52486,-1.911,-0.7,13.29,0,109.5,13.42,-1.17,286.6
"2016-01-02 00:23:30",1248458,2.807,321.2,10.54,1.31,3.753,99.52795,-1.903,-0.79,13.24,0,109.5,13.42,-1.16,283.2
"2016-01-02 00:24:00",1248459,3.143,319.5,9.08,1.305,4.878,99.52737,-1.904,-0.663,13.34,0,109.5,13.42,-1.16,281.5
"2016-01-02 00:24:30",1248460,3.17,324.2,9.71,1.402,4.826,99.52677,-1.906,-0.671,13.4,0,109.5,13.42,-1.16,286.2
"2016-01-02 00:25:00",1248461,2.658,317.5,8.15,0.981,3.009,99.52536,-1.909,-0.782,13.36,0,109.5,13.42,-1.16,279.5
"2016-01-02 00:25:30",1248462,3.458,315.9,7.008,1.371,4.512,99.52647,-1.907,-0.717,13.43,0,109.5,13.42,-1.16,277.9
"2016-01-02 00:26:00",1248463,3.686,309.4,6.721,1.34,4.537,99.52534,-1.909,-0.685,13.4,0,109.5,13.42,-1.16,271.4
"2016-01-02 00:26:30",1248464,3.158,308.1,8.58,1.316,4.521,99.52703,-1.905,-0.677,13.4,0,109.5,13.42,-1.16,270.1
"2016-01-02 00:27:00",1248465,3.839,307.8,7.305,1.33,5.32,99.52817,-1.902,-0.739,13.3,0,109.5,13.42,-1.16,269.8
"2016-01-02 00:27:30",1248466,3.371,301.1,7.254,1.366,4.629,99.53127,-1.894,-0.691,13.32,0,109.5,13.42,-1.15,263.1
"2016-01-02 00:28:00",1248467,3.158,294.6,12.04,1.25,3.963,99.53635,-1.881,-0.802,13.15,0,109.5,13.42,-1.14,256.6
"2016-01-02 00:28:30",1248468,3.028,289.3,6.59,1.174,3.201,99.5372,-1.879,-0.753,13.25,0,109.5,13.42,-1.13,251.3
"2016-01-02 00:29:00",1248469,3.976,302.5,7.406,1.283,5.093,99.53889,-1.875,-0.725,13.24,0,109.5,13.42,-1.13,264.5
"2016-01-02 00:29:30",1248470,3.569,293.1,6.456,1.426,4.111,99.53861,-1.876,-0.716,13.22,0,109.5,13.43,-1.13,255.1
"2016-01-02 00:30:00",1248471,3.607,285.5,7.447,1.337,5.021,99.54088,-1.87,-0.666,13.3,0,109.5,13.43,-1.12,247.5
"2016-01-02 00:30:30",1248472,2.909,282.5,6.69,1.133,3.627,99.54483,-1.86,-0.734,13.23,0,109.5,13.42,-1.11,244.5
"2016-01-02 00:31:00",1248473,2.635,289.6,7.838,1.013,3.278,99.54568,-1.858,-0.743,13.23,0,109.5,13.43,-1.11,251.6
"2016-01-02 00:31:30",1248474,3.42,285.7,9.31,1.328,3.931,99.55132,-1.843,-0.767,13.2,0,109.5,13.43,-1.10,247.7
"2016-01-02 00:32:00",1248475,3.539,302.1,11.72,1.203,4.818,99.54991,-1.847,-0.63,13.29,0,109.5,13.43,-1.10,264.1
"2016-01-02 00:32:30",1248476,2.914,314.3,15.85,1.361,3.905,99.55217,-1.841,-0.711,13.22,0,109.5,13.44,-1.10,276.3
"2016-01-02 00:33:00",1248477,3.271,301.4,8.71,1.421,4.49,99.54991,-1.847,-0.658,13.31,0,109.5,13.44,-1.10,263.4
"2016-01-02 00:33:30",1248478,3.239,297,8.82,1.438,4.228,99.55076,-1.845,-0.74,13.19,0,109.5,13.44,-1.10,259.0
"2016-01-02 00:34:00",1248479,2.96,284.2,3.624,0.879,3.279,99.54849,-1.85,-0.702,13.19,0,109.5,13.43,-1.10,246.2
"2016-01-02 00:34:30",1248480,3.828,281.9,7.224,1.285,4.213,99.55019,-1.846,-0.716,13.09,0,109.5,13.43,-1.10,243.9
"2016-01-02 00:35:00",1248481,4.043,284.9,7.907,1.364,4.136,99.55444,-1.835,-0.666,13.15,0,109.5,13.43,-1.09,246.9
"2016-01-02 00:35:30",1248482,3.889,289.5,7.006,1.336,4.846,99.55501,-1.834,-0.655,13.07,0,109.5,13.43,-1.09,251.5
"2016-01-02 00:36:00",1248483,3.86,286.4,6.052,1.279,4.507,99.55811,-1.826,-0.665,13,0,109.5,13.43,-1.08,248.4
"2016-01-02 00:36:30",1248484,3.974,285.7,7.638,1.311,4.597,99.55755,-1.827,-0.725,12.87,0,109.5,13.42,-1.08,247.7
"2016-01-02 00:37:00",1248485,3.584,284.9,6.547,1.278,4.096,99.55811,-1.826,-0.64,12.91,0,109.5,13.43,-1.08,246.9
"2016-01-02 00:37:30",1248486,4.087,285.8,7.358,1.303,4.441,99.55811,-1.826,-0.696,12.83,0,109.5,13.43,-1.08,247.8
"2016-01-02 00:38:00",1248487,4.147,283.7,6.59,1.416,4.561,99.55811,-1.826,-0.669,12.82,0,109.5,13.43,-1.08,245.7
"2016-01-02 00:38:30",1248488,3.991,280.3,6.338,1.338,4.464,99.55811,-1.826,-0.62,12.92,0,109.5,13.43,-1.08,242.3
"2016-01-02 00:39:00",1248489,3.819,284,7.591,1.288,4.615,99.55896,-1.824,-0.695,12.87,0,109.5,13.43,-1.08,246.0
"2016-01-02 00:39:30",1248490,3.878,286.1,6.906,1.279,5.121,99.55924,-1.823,-0.633,12.81,0,109.5,13.43,-1.08,248.1
"2016-01-02 00:40:00",1248491,3.127,284.7,6.384,1.176,3.666,99.56094,-1.819,-0.631,12.75,0,109.5,13.44,-1.07,246.7
"2016-01-02 00:40:30",1248492,3.594,288.3,7.508,1.299,3.918,99.56377,-1.812,-0.651,12.54,0,109.5,13.43,-1.07,250.3
"2016-01-02 00:41:00",1248493,3.301,283.8,8.74,1.206,3.423,99.56999,-1.796,-0.633,12.41,0,109.5,13.43,-1.05,245.8
"2016-01-02 00:41:30",1248494,4.022,286,6.832,1.333,4.595,99.57423,-1.785,-0.572,12.4,0,109.5,13.44,-1.04,248.0
"2016-01-02 00:42:00",1248495,3.903,285.3,6.762,1.328,4.762,99.57961,-1.771,-0.61,12.26,0,109.5,13.44,-1.03,247.3
"2016-01-02 00:42:30",1248496,3.224,280.3,5.406,0.993,3.554,99.57961,-1.771,-0.653,12.17,0,109.5,13.44,-1.03,242.3
"2016-01-02 00:43:00",1248497,4.083,284.3,7.889,1.362,4.915,99.58469,-1.758,-0.611,12.17,0,109.5,13.44,-1.01,246.3
"2016-01-02 00:43:30",1248498,3.771,280.7,6.892,1.423,4.384,99.58469,-1.758,-0.535,12.24,0,109.5,13.44,-1.01,242.7
"2016-01-02 00:44:00",1248499,4.052,280.4,6.756,1.334,4.106,99.58809,-1.75,-0.633,12.12,0,109.5,13.44,-1.00,242.4
"2016-01-02 00:44:30",1248500,4.069,286.7,9.08,1.323,4.415,99.59119,-1.742,-0.57,12.34,0,109.5,13.44,-1.00,248.7
"2016-01-02 00:45:00",1248501,4.783,294.9,15.06,1.248,5.038,99.59544,-1.731,-0.595,12.45,0,109.5,13.44,-0.98,256.9
"2016-01-02 00:45:30",1248502,3.93,291.6,8.26,1.363,4.508,99.60139,-1.716,-0.586,12.63,0,109.5,13.44,-0.97,253.6
"2016-01-02 00:46:00",1248503,3.055,286.6,11.3,0.977,3.674,99.61185,-1.689,-0.607,12.68,0,109.5,13.44,-0.94,248.6
"2016-01-02 00:46:30",1248504,3.742,286.9,6.449,1.367,4.776,99.6127,-1.687,-0.58,12.73,0,109.5,13.44,-0.94,248.9
"2016-01-02 00:47:00",1248505,3.962,285.6,7.419,1.412,3.873,99.61355,-1.685,-0.583,12.76,0,109.5,13.44,-0.94,247.6
"2016-01-02 00:47:30",1248506,4.011,282,5.735,1.372,4.472,99.61214,-1.688,-0.523,12.76,0,109.5,13.44,-0.94,244.0
"2016-01-02 00:48:00",1248507,3.886,278.4,7.513,1.311,4.365,99.61185,-1.689,-0.548,12.62,0,109.5,13.44,-0.94,240.4
"2016-01-02 00:48:30",1248508,4.236,283.9,8.02,1.356,4.614,99.61355,-1.685,-0.542,12.6,0,109.4,13.44,-0.94,245.9
"2016-01-02 00:49:00",1248509,3.726,283.3,7.875,1.205,3.777,99.61497,-1.681,-0.506,12.72,0,109.5,13.44,-0.93,245.3
"2016-01-02 00:49:30",1248510,4.23,280.9,9.85,1.363,4.493,99.61977,-1.669,-0.52,12.76,0,109.5,13.44,-0.92,242.9
"2016-01-02 00:50:00",1248511,3.799,279.5,8.91,1.301,3.681,99.62714,-1.65,-0.575,12.71,0,109.5,13.44,-0.90,241.5
"2016-01-02 00:50:30",1248512,4.064,277.4,7.208,1.324,4.705,99.63421,-1.632,-0.479,12.89,0,109.5,13.44,-0.89,239.4
"2016-01-02 00:51:00",1248513,3.831,285.3,13.94,1.378,4.84,99.63393,-1.633,-0.488,12.88,0,109.5,13.44,-0.89,247.3
"2016-01-02 00:51:30",1248514,2.982,284.3,7.9,1.326,3.751,99.63478,-1.631,-0.447,12.83,0,109.5,13.44,-0.88,246.3
"2016-01-02 00:52:00",1248515,2.442,292.2,8.54,1.243,2.979,99.64555,-1.603,-0.554,12.73,0,109.5,13.44,-0.86,254.2
"2016-01-02 00:52:30",1248516,3.792,276.4,9.52,1.357,3.916,99.65263,-1.585,-0.551,12.74,0,109.5,13.44,-0.84,238.4
"2016-01-02 00:53:00",1248517,4.082,280.2,9.11,1.428,4.257,99.65405,-1.581,-0.451,12.93,0,109.4,13.44,-0.83,242.2
"2016-01-02 00:53:30",1248518,3.304,288.5,7.901,1.362,3.976,99.65546,-1.578,-0.45,13,0,109.5,13.44,-0.83,250.5
"2016-01-02 00:54:00",1248519,3.484,287.1,8.72,1.214,4.943,99.65575,-1.577,-0.465,12.96,0,109.5,13.44,-0.83,249.1
"2016-01-02 00:54:30",1248520,2.44,294.7,10.59,1.184,3.191,99.65462,-1.58,-0.506,12.94,0,109.5,13.44,-0.83,256.7
"2016-01-02 00:55:00",1248521,2.912,271.5,13.91,1.462,2.923,99.65462,-1.58,-0.506,13,0,109.4,13.44,-0.83,233.5
"2016-01-02 00:55:30",1248522,3.89,285.7,6.806,1.41,4.422,99.65517,-1.579,-0.467,13.13,0,109.5,13.44,-0.83,247.7
"2016-01-02 00:56:00",1248523,3.607,283.7,6.915,1.308,4.335,99.658,-1.571,-0.404,13.2,0,109.5,13.44,-0.82,245.7
"2016-01-02 00:56:30",1248524,3.885,286.8,9.2,1.355,4.826,99.65715,-1.573,-0.451,13.21,0,109.5,13.45,-0.83,248.8
"2016-01-02 00:57:00",1248525,4.341,281.8,9.17,1.259,4.534,99.65771,-1.572,-0.467,13.28,0,109.4,13.45,-0.83,243.8
"2016-01-02 00:57:30",1248526,4.317,276.7,7.602,1.239,3.689,99.65942,-1.568,-0.421,13.36,0,109.4,13.45,-0.82,238.7
"2016-01-02 00:58:00",1248527,4.712,283.6,8.58,1.427,4.299,99.66026,-1.566,-0.434,13.48,0,109.5,13.45,-0.82,245.6
"2016-01-02 00:58:30",1248528,5.152,285.8,8.22,1.322,5.417,99.66422,-1.555,-0.359,13.59,0,109.4,13.44,-0.81,247.8
"2016-01-02 00:59:00",1248529,4.262,278,6.561,1.299,4.309,99.66508,-1.553,-0.443,13.52,0,109.4,13.44,-0.81,240.0
"2016-01-02 00:59:30",1248530,4.167,283.5,9.55,1.199,4.345,99.6713,-1.537,-0.405,13.51,0,109.4,13.45,-0.79,245.5
"2016-01-02 01:00:00",1248531,4.794,278.1,7.644,1.374,4.663,99.67386,-1.531,-0.373,13.48,0,109.4,13.45,-0.78,240.1
"2016-01-02 01:00:30",1248532,4.364,280.6,10.5,1.17,4.566,99.67471,-1.529,-0.381,13.46,0,109.4,13.45,-0.78,242.6
"2016-01-02 01:01:00",1248533,3.655,302.2,8.47,1.372,3.693,99.67471,-1.529,-0.427,13.37,0,109.5,13.45,-0.78,264.2
"2016-01-02 01:01:30",1248534,3.483,296.6,13.08,1.535,4.2,99.67528,-1.527,-0.386,13.38,0,109.4,13.45,-0.78,258.6
"2016-01-02 01:02:00",1248535,4.486,277.9,8.18,1.329,4.636,99.67612,-1.525,-0.371,13.38,0,109.4,13.45,-0.78,239.9
"2016-01-02 01:02:30",1248536,4.104,285.9,10.61,1.375,4.428,99.68037,-1.514,-0.374,13.35,0,109.4,13.45,-0.77,247.9
"2016-01-02 01:03:00",1248537,4.124,271.4,12.8,1.346,4.722,99.68717,-1.497,-0.367,13.3,0,109.4,13.46,-0.75,233.4
"2016-01-02 01:03:30",1248538,3.035,286.8,7.335,1.271,3.612,99.69172,-1.485,-0.358,13.32,0,109.4,13.46,-0.74,248.8
"2016-01-02 01:04:00",1248539,4.738,295.6,9.89,1.519,4.445,99.6937,-1.48,-0.343,13.31,0,109.4,13.46,-0.73,257.6
"2016-01-02 01:04:30",1248540,4.452,291.5,7.647,1.377,4.83,99.69398,-1.48,-0.346,13.3,0,109.5,13.45,-0.73,253.5
"2016-01-02 01:05:00",1248541,4.374,280.8,11.55,1.204,4.692,99.69398,-1.48,-0.355,13.3,0,109.4,13.46,-0.73,242.8
"2016-01-02 01:05:30",1248542,4.089,287,7.264,1.346,4.157,99.69398,-1.48,-0.322,13.37,0,109.4,13.45,-0.73,249.0
"2016-01-02 01:06:00",1248543,4.725,289.2,8,1.242,4.438,99.69398,-1.48,-0.349,13.32,0,109.4,13.45,-0.73,251.2
"2016-01-02 01:06:30",1248544,4.098,295.9,10.53,1.316,3.939,99.69398,-1.48,-0.38,13.32,0,109.4,13.45,-0.73,257.9
"2016-01-02 01:07:00",1248545,4.413,283.7,7,1.312,5.077,99.69398,-1.48,-0.242,13.44,0,109.4,13.45,-0.73,245.7
"2016-01-02 01:07:30",1248546,4.567,283.9,7.013,1.308,4.65,99.69398,-1.48,-0.367,13.31,0,109.4,13.46,-0.73,245.9
"2016-01-02 01:08:00",1248547,3.934,278.1,8.08,1.27,3.918,99.69398,-1.48,-0.301,13.42,0,109.4,13.45,-0.73,240.1
"2016-01-02 01:08:30",1248548,5.137,291.1,10.87,1.46,4.543,99.69398,-1.48,-0.351,13.36,0,109.4,13.45,-0.73,253.1
"2016-01-02 01:09:00",1248549,4.84,284.6,7.036,1.334,4.156,99.69398,-1.48,-0.333,13.38,0,109.4,13.44,-0.73,246.6
"2016-01-02 01:09:30",1248550,4.784,292.5,6.668,1.537,4.692,99.69568,-1.475,-0.283,13.42,0,109.4,13.44,-0.73,254.5
"2016-01-02 01:10:00",1248551,4.868,296.2,8.74,1.436,5.4,99.69795,-1.47,-0.238,13.5,0,109.4,13.44,-0.72,258.2
"2016-01-02 01:10:30",1248552,4.286,277.3,6.45,1.361,4.585,99.69823,-1.469,-0.312,13.44,0,109.4,13.44,-0.72,239.3
"2016-01-02 01:11:00",1248553,4.319,300.9,15.68,1.437,4.51,99.70078,-1.462,-0.359,13.43,0,109.4,13.44,-0.72,262.9
"2016-01-02 01:11:30",1248554,4.203,301.3,5.686,1.275,3.446,99.7039,-1.454,-0.298,13.44,0,109.4,13.44,-0.71,263.3
"2016-01-02 01:12:00",1248555,3.968,286,7.985,1.345,4.306,99.70419,-1.454,-0.256,13.47,0,109.4,13.44,-0.71,248.0
"2016-01-02 01:12:30",1248556,4.258,292.2,10.66,1.312,5.592,99.70503,-1.451,-0.264,13.45,0,109.4,13.45,-0.70,254.2
"2016-01-02 01:13:00",1248557,4.251,281.1,5.891,1.308,4.198,99.70702,-1.446,-0.266,13.47,0,109.4,13.45,-0.70,243.1
"2016-01-02 01:13:30",1248558,5.22,287.4,9.43,1.135,5.612,99.71042,-1.438,-0.262,13.48,0,109.4,13.45,-0.69,249.4
"2016-01-02 01:14:00",1248559,2.726,290.1,9.87,1.189,3.524,99.71182,-1.434,-0.293,13.45,0,109.4,13.45,-0.69,252.1
"2016-01-02 01:14:30",1248560,2.684,303.3,9.62,1.356,3.771,99.71211,-1.433,-0.361,13.38,0,109.4,13.45,-0.69,265.3
"2016-01-02 01:15:00",1248561,3.518,299.4,7.298,1.387,4.625,99.71268,-1.432,-0.214,13.5,0,109.4,13.46,-0.69,261.4
"2016-01-02 01:15:30",1248562,3.502,279.5,9.13,1.13,4.083,99.71467,-1.427,-0.294,13.43,0,109.4,13.46,-0.68,241.5
"2016-01-02 01:16:00",1248563,3.907,292.5,7.748,1.513,4.941,99.71551,-1.425,-0.243,13.45,0,109.4,13.46,-0.68,254.5
"2016-01-02 01:16:30",1248564,3.809,296.7,15.34,1.28,3.803,99.71381,-1.429,-0.293,13.38,0,109.4,13.46,-0.68,258.7
"2016-01-02 01:17:00",1248565,3.701,307.4,9.31,1.197,3.296,99.71239,-1.433,-0.253,13.43,0,109.4,13.46,-0.69,269.4
"2016-01-02 01:17:30",1248566,4.269,299.9,7.119,1.362,4.998,99.71154,-1.435,-0.209,13.46,0,109.4,13.46,-0.69,261.9
"2016-01-02 01:18:00",1248567,4.584,300.1,8.33,1.402,4.943,99.71097,-1.436,-0.19,13.43,0,109.4,13.46,-0.69,262.1
"2016-01-02 01:18:30",1248568,3.575,301.4,10.35,1.331,4.576,99.70985,-1.439,-0.207,13.43,0,109.4,13.46,-0.69,263.4
"2016-01-02 01:19:00",1248569,3.507,312.5,7.161,1.305,4.977,99.71069,-1.437,-0.287,13.4,0,109.5,13.46,-0.69,274.5
"2016-01-02 01:19:30",1248570,2.064,315.9,8.11,1.197,3.333,99.70815,-1.444,-0.312,13.43,0,109.5,13.46,-0.70,277.9
"2016-01-02 01:20:00",1248571,2.059,314.9,7.487,1.089,3.422,99.71011,-1.439,-0.262,13.53,0,109.5,13.46,-0.69,276.9
"2016-01-02 01:20:30",1248572,2.296,305,7.481,1.11,3.255,99.71124,-1.436,-0.268,13.58,0,109.4,13.46,-0.69,267.0
"2016-01-02 01:21:00",1248573,3.558,292.2,13.28,1.035,3.909,99.70586,-1.449,-0.276,13.57,0,109.4,13.46,-0.70,254.2
"2016-01-02 01:21:30",1248574,3.838,280.9,9.18,1.41,4.756,99.70614,-1.449,-0.236,13.53,0,109.4,13.46,-0.70,242.9
"2016-01-02 01:22:00",1248575,3.11,293.6,14.02,1.346,4.468,99.70584,-1.449,-0.279,13.45,0,109.4,13.46,-0.70,255.6
"2016-01-02 01:22:30",1248576,2.731,299,12.26,1.12,3.365,99.70641,-1.448,-0.287,13.46,0,109.4,13.46,-0.70,261.0
"2016-01-02 01:23:00",1248577,3.818,280.8,9.37,1.029,4.18,99.70782,-1.444,-0.333,13.42,0,109.4,13.46,-0.70,242.8
"2016-01-02 01:23:30",1248578,3.295,285.3,7.701,1.348,3.372,99.70641,-1.448,-0.304,13.41,0,109.5,13.46,-0.70,247.3
"2016-01-02 01:24:00",1248579,3.523,289.5,6.314,1.342,4.889,99.70923,-1.441,-0.219,13.47,0,109.4,13.46,-0.69,251.5
"2016-01-02 01:24:30",1248580,3.268,289.7,9.96,1.274,4.903,99.70951,-1.44,-0.241,13.48,0,109.4,13.46,-0.69,251.7
"2016-01-02 01:25:00",1248581,3.417,283.1,7.579,1.395,4.105,99.71008,-1.439,-0.336,13.4,0,109.4,13.46,-0.69,245.1
"2016-01-02 01:25:30",1248582,3.588,288.7,9.2,1.35,3.55,99.71093,-1.436,-0.303,13.44,0,109.4,13.46,-0.69,250.7
"2016-01-02 01:26:00",1248583,3.019,294.4,10.38,1.181,3.015,99.71178,-1.434,-0.352,13.41,0,109.5,13.46,-0.69,256.4
"2016-01-02 01:26:30",1248584,3.425,276.3,10.49,1.444,4.318,99.71291,-1.431,-0.254,13.53,0,109.4,13.46,-0.68,238.3
"2016-01-02 01:27:00",1248585,4.396,283.9,6.56,1.274,5.892,99.71517,-1.426,-0.196,13.58,0,109.4,13.45,-0.68,245.9
"2016-01-02 01:27:30",1248586,3.552,277.4,7.282,1.267,3.908,99.71291,-1.431,-0.341,13.45,0,109.4,13.46,-0.68,239.4
"2016-01-02 01:28:00",1248587,4.474,271.7,7.009,1.225,4.909,99.71488,-1.426,-0.298,13.51,0,109.4,13.46,-0.68,233.7
"2016-01-02 01:28:30",1248588,3.23,273,9.49,1.298,3.546,99.71545,-1.425,-0.283,13.51,0,109.5,13.46,-0.68,235.0
"2016-01-02 01:29:00",1248589,3.831,288.1,8.43,1.123,4.51,99.71602,-1.423,-0.311,13.53,0,109.5,13.46,-0.68,250.1
"2016-01-02 01:29:30",1248590,3.977,288.1,7.407,1.406,4.728,99.71602,-1.423,-0.269,13.61,0,109.5,13.46,-0.68,250.1
"2016-01-02 01:30:00",1248591,4.218,286.1,7.185,1.324,4.934,99.71602,-1.423,-0.284,13.64,0,109.5,13.46,-0.68,248.1
"2016-01-02 01:30:30",1248592,4.311,285.1,7.336,1.395,5.036,99.71799,-1.418,-0.26,13.58,0,109.5,13.46,-0.67,247.1
"2016-01-02 01:31:00",1248593,5.094,284.1,7.706,1.163,4.703,99.71715,-1.421,-0.307,13.45,0,109.5,13.46,-0.67,246.1
"2016-01-02 01:31:30",1248594,4.054,286.9,11.13,1.25,4.023,99.71743,-1.42,-0.298,13.41,0,109.4,13.46,-0.67,248.9
"2016-01-02 01:32:00",1248595,4.853,287.5,7.222,1.293,5.076,99.71799,-1.418,-0.262,13.41,0,109.5,13.46,-0.67,249.5
"2016-01-02 01:32:30",1248596,4.077,299.4,9.41,1.398,5.213,99.71772,-1.419,-0.259,13.39,0,109.5,13.46,-0.67,261.4
"2016-01-02 01:33:00",1248597,3.698,281,8.41,1.532,4.196,99.71715,-1.421,-0.261,13.46,0,109.4,13.46,-0.67,243.0
"2016-01-02 01:33:30",1248598,4.503,287.9,7.218,1.277,4.96,99.71743,-1.42,-0.316,13.41,0,109.5,13.46,-0.67,249.9
"2016-01-02 01:34:00",1248599,4.09,281,7.473,1.258,4.287,99.71573,-1.424,-0.26,13.5,0,109.5,13.47,-0.68,243.0
"2016-01-02 01:34:30",1248600,3.567,283.2,6.688,1.163,3.476,99.71828,-1.418,-0.3,13.41,0,109.5,13.46,-0.67,245.2
"2016-01-02 01:35:00",1248601,3.996,290,6.352,1.268,4.815,99.71743,-1.42,-0.226,13.52,0,109.4,13.47,-0.67,252.0
"2016-01-02 01:35:30",1248602,4.684,290.3,9.77,1.284,5.513,99.71743,-1.42,-0.209,13.48,0,109.4,13.46,-0.67,252.3
"2016-01-02 01:36:00",1248603,4.012,275.1,5.742,1.318,4.018,99.71912,-1.416,-0.271,13.39,0,109.4,13.47,-0.67,237.1
"2016-01-02 01:36:30",1248604,4.215,283.1,8.01,1.273,4.129,99.72111,-1.41,-0.299,13.26,0,109.5,13.47,-0.66,245.1
"2016-01-02 01:37:00",1248605,3.905,277,8.29,1.315,4.32,99.72224,-1.408,-0.252,13.35,0,109.5,13.46,-0.66,239.0
"2016-01-02 01:37:30",1248606,4.218,280.6,7.037,1.326,4.445,99.72649,-1.397,-0.254,13.28,0,109.5,13.46,-0.65,242.6
"2016-01-02 01:38:00",1248607,3.972,283.3,7.671,1.385,5.021,99.72989,-1.388,-0.194,13.31,0,109.5,13.46,-0.64,245.3
"2016-01-02 01:38:30",1248608,3.934,283.8,6.717,1.409,5.072,99.7299,-1.388,-0.245,13.28,0,109.5,13.46,-0.64,245.8
"2016-01-02 01:39:00",1248609,4.287,280.5,7.04,1.381,5.016,99.735,-1.375,-0.197,13.27,0,109.5,13.46,-0.63,242.5
"2016-01-02 01:39:30",1248610,4.04,282.2,6.945,1.301,4.647,99.735,-1.375,-0.276,13.15,0,109.5,13.46,-0.63,244.2
"2016-01-02 01:40:00",1248611,3.811,280.2,7.937,1.254,4.139,99.73669,-1.371,-0.234,13.24,0,109.5,13.46,-0.62,242.2
"2016-01-02 01:40:30",1248612,4.413,278.8,7.515,1.372,4.707,99.73868,-1.366,-0.193,13.23,0,109.5,13.46,-0.62,240.8
"2016-01-02 01:41:00",1248613,4.193,281.9,7.413,1.322,5.154,99.7435,-1.353,-0.191,13.16,0,109.5,13.46,-0.61,243.9
"2016-01-02 01:41:30",1248614,4.22,280.3,7.856,1.313,4.913,99.74634,-1.346,-0.255,13.05,0,109.5,13.46,-0.60,242.3
"2016-01-02 01:42:00",1248615,3.528,280.9,6.43,1.236,4.212,99.75087,-1.335,-0.209,13.11,0,109.5,13.46,-0.59,242.9
"2016-01-02 01:42:30",1248616,4.278,284.3,6.55,1.393,5.063,99.75257,-1.33,-0.227,13.12,0,109.4,13.45,-0.58,246.3
"2016-01-02 01:43:00",1248617,3.902,287.7,9.25,1.335,4.6,99.75314,-1.329,-0.257,13.16,0,109.5,13.45,-0.58,249.7
"2016-01-02 01:43:30",1248618,3.668,282.2,7.424,1.411,4.648,99.75342,-1.328,-0.144,13.35,0,109.4,13.46,-0.58,244.2
"2016-01-02 01:44:00",1248619,3.825,282.8,7.306,1.365,5.342,99.75342,-1.328,-0.178,13.29,0,109.5,13.45,-0.58,244.8
"2016-01-02 01:44:30",1248620,3.025,280.8,7.289,1.179,3.992,99.75342,-1.328,-0.243,13.19,0,109.5,13.46,-0.58,242.8
"2016-01-02 01:45:00",1248621,3.564,285.2,8.05,1.328,5.19,99.7537,-1.327,-0.202,13.29,0,109.5,13.46,-0.58,247.2